Location: Caltech
(34.1382°N, 118.1253°W)
Time: 17:20:37
(UTC-07:00)

SO-50 - Visible Passes

Search period start: 29 May 2015 00:00
Search period end: 08 June 2015 00:00
Orbit: 589 x 702 km, 64.6° (Epoch: 28 May)

Date Brightness Start Highest point End Pass type
(mag) Time Alt. Az. Time Alt. Az. Time Alt. Az.
29 May ? 02:30:35 45° ENE 02:30:35 45° ENE 02:34:06 10° NE visible
29 May ? 04:08:16 12° WNW 04:10:24 15° NW 04:13:09 10° N visible
30 May ? 02:55:45 47° NW 02:55:45 47° NW 02:59:59 10° NNE visible
31 May ? 01:43:11 24° ENE 01:43:11 24° ENE 01:45:19 10° NE visible
31 May ? 03:20:52 20° WNW 03:21:34 21° NW 03:25:10 10° N visible
01 Jun ? 02:08:15 41° NNE 02:08:15 41° NNE 02:11:28 10° NNE visible
02 Jun ? 00:55:36 14° ENE 00:55:36 14° ENE 00:56:21 10° NE visible
02 Jun ? 02:33:17 28° NW 02:33:17 28° NW 02:36:57 10° N visible
03 Jun ? 01:20:35 28° NE 01:20:35 28° NE 01:22:52 10° NNE visible
03 Jun ? 02:58:15 12° WNW 02:59:15 13° NW 03:01:23 10° NNW visible
04 Jun ? 01:45:30 32° NNW 01:45:30 32° NNW 01:48:37 10° NNE visible
05 Jun ? 00:32:43 19° NE 00:32:43 19° NE 00:34:09 10° NE visible
05 Jun ? 02:10:22 18° NW 02:10:23 18° NW 02:13:36 10° N visible
06 Jun ? 00:57:31 31° N 00:57:31 31° N 01:00:09 10° NNE visible
06 Jun ? 23:44:37 13° NE 23:44:37 13° NE 23:45:17 10° NE visible
07 Jun ? 01:22:16 23° NW 01:22:16 23° NW 01:25:29 10° N visible
